sat.trackr.live / text

‹ back to catalog

STARLINK-33591

NORAD 62777 · 2025-015V

PAYLOAD ACTIVE UNKNOWN

§ Identity

Operator
Country
US
Launch date
2025-01-21
Launch site
AFWTR
Launch vehicle
Mass (kg)
RCS (m²)

Purposes: comms

External: N2YO · Heavens-Above · Gunter

§ Orbital elements

Epoch: 2026-09-21T20:49:23.579328Z

Period
93.85 min
Inclination
53.1578°
Eccentricity
0.0001269
Mean motion
15.34413108 rev/d
Perigee alt
461.8 km
Apogee alt
463.5 km
Semi-major
6,840.8 km
B*
3.3926e-4
RAAN
127.2037°
Arg perigee
96.2476°
Mean anomaly
263.8671°
Rev number
9,457

§ Raw data

STARLINK-335911 62777U 25015V   26264.86763402  .00011108  00000+0  33926-3 0  99942 62777  53.1578 127.2037 0001269  96.2476 263.8671 15.34413108 94572

JSON: /api/v1/satellites/62777 · /tle

For live sub-satellite position, see the globe view (requires WebGL).

§ Visibility from observer

Set your observer location to see the next 7 days of passes ≥ 10°. The values pass through the URL so the page stays shareable.

No JS? Fill the form by hand. The geolocation button needs JavaScript.